Hlavní strana
METAR-TAF:

METAR-TAF

Letiště :

Nipawin, Saskatchewan, Kanada

zeměpisná šířka: 53-20N, zeměpisná délka: 104-00W, výška: 372 m

Aktuální stav počasí

Zpráva byla vytvořena před 57 minutami, v 06:10 UTC
Západní vítr 3 kt
Teplota 7°C
Vlhkost vzduchu 100%
Tlak 1023 hPa
Viditelnost: 14.5 km
Jasno

METAR: CYBU 200610Z AUTO 26003KT 9SM CLR 07/07 A3021 RMK SLP241

Čas: 01:07 (07:07 UTC)


TAF: chybějící

Stav a předpovědi počasí z více než 4 000 letišť (zprávy METAR a TAF).

Červené a žluté tečky na mapě představují dostupné meteorologické stanice.

Když kurzor umístíte na tečku, zobrazí se název stanice.

Pak kliknutím zobrazíte stav a předpověď počasí.

Chcete-li změnit mapu, kliknutím na zelené tlačítko se znaménkem +mapu přiblížíte, kliknutím na zelené tlačítko se znaménkem – mapu oddálíte a kliknutím na zelené šipky přejdete na sousední mapy.


METAR-TAF: